Fairfield, IL

2:33 AM CST on December 06, 2019 (GMT -0600)
Fairfield Municipal

Weather History for KFWC - October, 2019

Change the Weather History Date:

Wednesday, October 9, 2019

  Actual Average (KEVV) Record (KEVV)
Temperature  
Mean Temperature 58 °F -  
Max Temperature 77 °F 71 °F 89 °F (1939)
Min Temperature 41 °F 47 °F 29 °F (2000)
Degree Days  
Heating Degree Days 6    
Growing Degree Days 8 (Base 50)    
Moisture  
Dew Point 48 °F    
Average Humidity 72    
Maximum Humidity 100    
Minimum Humidity 37    
Precipitation  
Precipitation 0.00 in - - ()
Sea Level Pressure  
Sea Level Pressure 30.08 in    
Wind  
Wind Speed 1 mph ()    
Max Wind Speed 5 mph    
Max Gust Speed -    
Visibility 10.0 miles    
Events      
Averages and records for this station are not official NWS values.
T = Trace of Precipitation, MM = Missing Value Source: Averaged Metar Reports

Daily Weather History Graph

Daily Weather History Graph

Search for Another Location

Airport or City:

Astronomy

Oct. 09, 2019 Rise Set
Actual Time 6:56 AM CDT 6:24 PM CDT
Civil Twilight 6:30 AM CDT 6:51 PM CDT
Nautical Twilight 5:59 AM CDT 7:21 PM CDT
Astronomical Twilight 5:28 AM CDT 7:52 PM CDT
Moon 4:52 PM CDT (10/9) 2:47 AM CDT (10/9)
Length of Visible Light 12h 20m
Length of Day
11h 28m
Waxing Gibbous, 85% of the Moon is Illuminated
Oct 9
Waxing Gibbous
Oct 13
Full
Oct 21
Last Quarter
Oct 27
New
Nov 4
First Quarter

Hourly Weather History & Observations

Time (CDT) Temp. Dew Point Humidity Pressure Visibility Wind Dir Wind Speed Gust Speed Precip Events Conditions
12:15 AM 48.2 °F 46.0 °F 92% 30.10 in 10.0 mi Calm Calm - N/A   Clear
12:35 AM 47.5 °F 45.5 °F 93% 30.10 in 10.0 mi Calm Calm - N/A   Clear
12:55 AM 46.6 °F 45.9 °F 97% 30.10 in 10.0 mi Calm Calm - N/A   Clear
1:15 AM 46.6 °F 46.2 °F 99% 30.10 in 10.0 mi Calm Calm - N/A   Clear
1:35 AM 46.8 °F 45.9 °F 97% 30.10 in 10.0 mi Calm Calm - N/A   Clear
1:55 AM 46.4 °F 45.9 °F 98% 30.10 in 10.0 mi Calm Calm - N/A   Clear
2:15 AM 44.8 °F 44.8 °F 100% 30.10 in 10.0 mi Calm Calm - N/A   Clear
2:35 AM 43.3 °F 43.3 °F 100% 30.10 in 10.0 mi Calm Calm - N/A   Clear
2:55 AM 42.8 °F 42.8 °F 100% 30.10 in 10.0 mi Calm Calm - N/A   Clear
3:15 AM 43.7 °F 43.7 °F 100% 30.10 in 10.0 mi Calm Calm - N/A   Clear
3:35 AM 44.4 °F 44.4 °F 100% 30.10 in 10.0 mi Calm Calm - N/A   Clear
3:55 AM 42.8 °F 42.8 °F 100% 30.10 in 10.0 mi Calm Calm - N/A   Clear
4:15 AM 42.1 °F 42.1 °F 100% 30.10 in 10.0 mi Calm Calm - N/A   Clear
4:35 AM 41.9 °F 41.9 °F 100% 30.11 in 10.0 mi Calm Calm - N/A   Clear
4:55 AM 41.5 °F 41.5 °F 100% 30.11 in 10.0 mi Calm Calm - N/A   Clear
5:15 AM 41.2 °F 41.2 °F 100% 30.11 in 10.0 mi Calm Calm - N/A   Clear
5:35 AM 43.0 °F 43.0 °F 100% 30.11 in 10.0 mi Calm Calm - N/A   Clear
5:55 AM 42.8 °F 42.8 °F 100% 30.12 in 10.0 mi Calm Calm - N/A   Clear
6:15 AM 44.8 °F 44.6 °F 99% 30.12 in 10.0 mi Calm Calm - N/A   Clear
6:35 AM 44.8 °F 44.1 °F 97% 30.12 in 10.0 mi Calm Calm - N/A   Clear
6:55 AM 44.2 °F 43.5 °F 97% 30.13 in 10.0 mi Calm Calm - N/A   Clear
7:15 AM 45.5 °F 44.6 °F 97% 30.13 in 10.0 mi Calm Calm - N/A   Clear
7:35 AM 46.4 °F 45.0 °F 95% 30.13 in 10.0 mi Calm Calm - N/A   Clear
7:55 AM 48.2 °F 46.4 °F 93% 30.14 in 10.0 mi Calm Calm - N/A   Clear
8:15 AM 50.4 °F 47.3 °F 89% 30.14 in 10.0 mi Calm Calm - N/A   Clear
8:55 AM 55.2 °F 47.7 °F 76% 30.14 in 10.0 mi Calm Calm - N/A   Clear
9:15 AM 59.0 °F 47.5 °F 66% 30.14 in 10.0 mi Calm Calm - N/A   Clear
9:35 AM 59.7 °F 47.8 °F 65% 30.14 in 10.0 mi Calm Calm - N/A   Clear
9:55 AM 61.5 °F 48.9 °F 63% 30.14 in 10.0 mi Calm Calm - N/A   Clear
10:15 AM 63.5 °F 49.8 °F 61% 30.14 in 10.0 mi Calm Calm - N/A   Clear
10:35 AM 65.8 °F 50.7 °F 58% 30.15 in 10.0 mi Calm Calm - N/A   Clear
10:55 AM 66.7 °F 49.8 °F 54% 30.14 in 10.0 mi Calm Calm - N/A   Clear
11:15 AM 68.4 °F 50.2 °F 52% 30.15 in 10.0 mi Calm Calm - N/A   Clear
11:35 AM 70.7 °F 50.9 °F 49% 30.14 in 10.0 mi SE 3.5 mph - N/A   Clear
11:55 AM 71.1 °F 50.4 °F 48% 30.13 in 10.0 mi East 4.6 mph - N/A   Clear
12:15 PM 71.2 °F 50.2 °F 47% 30.12 in 10.0 mi ESE 3.5 mph - N/A   Clear
12:35 PM 71.8 °F 50.0 °F 46% 30.12 in 10.0 mi East 3.5 mph - N/A   Clear
12:55 PM 72.3 °F 51.1 °F 47% 30.11 in 10.0 mi East 3.5 mph - N/A   Clear
1:15 PM 73.8 °F 49.3 °F 42% 30.09 in 10.0 mi ESE 3.5 mph - N/A   Clear
1:35 PM 74.7 °F 50.7 °F 43% 30.08 in 10.0 mi Calm Calm - N/A   Clear
1:55 PM 74.7 °F 50.0 °F 42% 30.07 in 10.0 mi SE 4.6 mph - N/A   Clear
2:15 PM 75.7 °F 50.5 °F 41% 30.05 in 10.0 mi ESE 3.5 mph - N/A   Clear
2:35 PM 76.3 °F 49.8 °F 39% 30.04 in 10.0 mi SE 4.6 mph - N/A   Clear
2:55 PM 76.6 °F 50.5 °F 40% 30.04 in 10.0 mi East 4.6 mph - N/A   Clear
3:15 PM 76.3 °F 50.0 °F 40% 30.03 in 10.0 mi SE 4.6 mph - N/A   Clear
3:35 PM 76.8 °F 49.6 °F 38% 30.03 in 10.0 mi ESE 3.5 mph - N/A   Clear
3:55 PM 76.6 °F 49.1 °F 38% 30.03 in 10.0 mi East 3.5 mph - N/A   Clear
4:15 PM 76.3 °F 48.4 °F 37% 30.02 in 10.0 mi SE 3.5 mph - N/A   Clear
4:35 PM 76.3 °F 48.4 °F 37% 30.02 in 10.0 mi ESE 3.5 mph - N/A   Clear
4:55 PM 76.1 °F 48.6 °F 38% 30.03 in 10.0 mi ESE 3.5 mph - N/A   Clear
5:15 PM 75.2 °F 47.1 °F 37% 30.02 in 10.0 mi ESE 3.5 mph - N/A   Clear
5:35 PM 72.5 °F 48.4 °F 42% 30.03 in 10.0 mi Calm Calm - N/A   Clear
5:55 PM 70.2 °F 48.7 °F 46% 30.03 in 10.0 mi Calm Calm - N/A   Clear
6:15 PM 64.0 °F 50.7 °F 62% 30.03 in 10.0 mi Calm Calm - N/A   Clear
6:35 PM 63.1 °F 50.0 °F 62% 30.03 in 7.0 mi Calm Calm - N/A   Clear
6:55 PM 60.3 °F 50.9 °F 71% 30.04 in 10.0 mi Calm Calm - N/A   Clear
7:15 PM 58.1 °F 50.7 °F 76% 30.04 in 10.0 mi Calm Calm - N/A   Clear
7:35 PM 58.6 °F 51.3 °F 76% 30.04 in 10.0 mi Calm Calm - N/A   Clear
7:55 PM 58.1 °F 51.1 °F 77% 30.04 in 10.0 mi Calm Calm - N/A   Clear
8:15 PM 59.7 °F 50.9 °F 73% 30.05 in 10.0 mi Calm Calm - N/A   Clear
8:35 PM 58.8 °F 51.3 °F 76% 30.05 in 10.0 mi Calm Calm - N/A   Clear
8:55 PM 61.9 °F 50.9 °F 67% 30.05 in 10.0 mi Calm Calm - N/A   Clear
9:15 PM 61.7 °F 51.6 °F 69% 30.06 in 10.0 mi Calm Calm - N/A   Clear
9:35 PM 61.7 °F 52.7 °F 72% 30.04 in 10.0 mi East 4.6 mph - N/A   Clear
9:55 PM 61.2 °F 53.4 °F 76% 30.05 in 10.0 mi East 3.5 mph - N/A   Clear
10:15 PM 60.8 °F 54.0 °F 78% 30.05 in 10.0 mi Calm Calm - N/A   Clear
10:35 PM 60.1 °F 55.0 °F 83% 30.05 in 10.0 mi Calm Calm - N/A   Clear
11:15 PM 60.1 °F 56.3 °F 87% 30.05 in 10.0 mi ESE 3.5 mph - N/A   Clear
11:35 PM 59.9 °F 56.7 °F 89% 30.05 in 10.0 mi Calm Calm - N/A   Clear
11:55 PM 59.9 °F 56.7 °F 89% 30.05 in 10.0 mi Calm Calm - N/A   Clear